NV6B Weather Reports


Display with metric or nautical units.
time (UTC)temp
F
wind
direction
speed
MPH
gust
MPH
rain 1hr
in
rain 24hr
in
rain mn
in
humidity
%
barometer
mb
20211204104638 28 157 3.0 3.0 0.00 0.00 0.00 98 1020.3
20211204103638 28 157 1.0 2.0 0.00 0.00 0.00 98 1020.5
20211204102638 28 157 1.0 2.0 0.00 0.00 0.00 98 1020.8
20211204101637 28 158 0.0 2.0 0.00 0.00 0.00 98 1021.0
20211204092637 29 158 0.0 2.0 0.00 0.00 0.00 97 1020.7
20211204091639 29 158 0.0 2.0 0.00 0.00 0.00 97 1020.6
20211204090637 30 158 0.0 0.0 0.00 0.00 0.00 97 1020.4
20211204085638 30 158 0.0 4.0 0.00 0.00 0.00 97 1020.7
20211204084638 30 158 0.0 4.0 0.00 0.00 0.00 97 1020.6
20211204083637 30 158 3.0 4.0 0.00 0.00 0.00 97 1020.4
20211204075637 32 355 1.0 2.0 0.00 0.00 0.00 97 1020.9
20211204072637 32 355 0.0 3.0 0.00 0.00 0.00 98 1021.2
20211204071637 32 355 0.0 3.0 0.00 0.00 0.00 98 1021.1
20211204062637 31 355 0.0 0.0 0.00 0.00 0.00 97 1020.7
20211204061637 32 355 0.0 0.0 0.00 0.00 0.00 97 1020.8
20211204060637 32 355 0.0 0.0 0.00 0.00 0.00 97 1020.6
20211204055637 32 355 0.0 0.0 0.00 0.00 0.00 97 1020.4
20211204054638 32 355 0.0 0.0 0.00 0.00 0.00 97 1020.4
20211204052637 32 355 0.0 0.0 0.00 0.00 0.00 97 1020.5
20211204051638 32 355 0.0 0.0 0.00 0.00 0.00 97 1020.4
20211204050637 32 355 0.0 0.0 0.00 0.00 0.00 96 1020.6
20211204045637 32 355 0.0 0.0 0.00 0.00 0.00 96 1020.4
20211204043637 33 355 0.0 0.0 0.00 0.00 0.00 96 1020.4
20211204041637 33 355 0.0 0.0 0.00 0.00 0.00 96 1020.6
20211204034637 34 355 0.0 0.0 0.00 0.00 0.00 96 1020.4
20211204030636 35 355 0.0 0.0 0.00 0.00 0.00 96 1020.2
20211204024636 36 355 0.0 0.0 0.00 0.00 0.00 96 1020.1
20211204023636 36 355 0.0 0.0 0.00 0.00 0.00 96 1020.1
20211204022637 36 355 0.0 0.0 0.00 0.00 0.00 96 1020.2
20211204021636 36 355 0.0 0.0 0.00 0.00 0.00 96 1020.3
20211204020636 36 355 0.0 0.0 0.00 0.00 0.00 95 1020.3
20211204013635 37 355 0.0 0.0 0.00 0.00 0.00 95 1020.4
20211204012637 38 355 0.0 1.0 0.00 0.00 0.00 95 1020.3
20211204011635 38 355 0.0 1.0 0.00 0.00 0.00 95 1020.4
20211204004651 38 355 2.0 2.0 0.00 0.00 0.00 93 1020.4
20211204003651 39 355 0.0 0.0 0.00 0.00 0.00 92 1020.4
20211204002651 40 355 0.0 3.0 0.00 0.00 0.00 92 1020.3
20211203235650 42 358 0.0 0.0 0.00 0.00 0.00 90 1020.5
20211203233651 43 358 0.0 0.0 0.00 0.00 0.00 89 1020.3
20211203221650 46 356 0.0 3.0 0.00 0.00 0.00 87 1020.6
20211203220650 45 356 2.0 3.0 0.00 0.00 0.00 88 1020.7
20211203211649 45 154 0.0 0.0 0.00 0.00 0.00 92 1021.0
20211203204649 42 148 0.0 0.0 0.00 0.00 0.00 97 1021.3
20211203201649 40 293 0.0 0.0 0.00 0.00 0.00 99 1022.3
20211203194649 39 324 0.0 0.0 0.00 0.00 0.00 99 1022.7
20211203192649 39 324 0.0 0.0 0.00 0.00 0.00 99 1023.0
20211203182649 37 29 0.0 0.0 0.00 0.00 0.00 99 1023.9
20211203181649 37 29 0.0 0.0 0.00 0.00 0.00 99 1024.1
20211203180650 36 29 0.0 0.0 0.00 0.00 0.00 99 1023.9
20211203175649 36 29 0.0 0.0 0.00 0.00 0.00 99 1023.9
20211203173649 34 29 0.0 0.0 0.00 0.00 0.00 98 1023.9
20211203171649 34 29 0.0 3.0 0.00 0.00 0.00 98 1023.8
20211203170650 34 29 2.0 3.0 0.00 0.00 0.00 98 1023.8
20211203165649 34 33 3.0 3.0 0.00 0.00 0.00 98 1023.7
20211203162649 32 155 0.0 2.0 0.00 0.00 0.00 98 1023.3
20211203161649 31 155 0.0 1.0 0.00 0.00 0.00 98 1023.2
20211203160649 31 155 0.0 0.0 0.00 0.00 0.00 98 1023.3
20211203155649 31 155 0.0 3.0 0.00 0.00 0.00 97 1023.4
20211203152648 30 156 0.0 3.0 0.00 0.00 0.00 97 1023.1
20211203151649 30 313 0.0 0.0 0.00 0.00 0.00 97 1023.0
20211203150648 30 313 0.0 0.0 0.00 0.00 0.00 97 1023.3
20211203144648 30 313 0.0 0.0 0.00 0.00 0.00 97 1023.2
20211203143648 30 313 0.0 0.0 0.00 0.00 0.00 97 1023.2
20211203142648 30 313 0.0 0.0 0.00 0.00 0.00 97 1023.3
20211203135648 30 313 0.0 0.0 0.00 0.00 0.00 97 1023.1
20211203130648 30 313 0.0 0.0 0.00 0.00 0.00 96 1022.9
20211203125648 30 313 0.0 0.0 0.00 0.00 0.00 96 1023.0
20211203124648 30 313 0.0 0.0 0.00 0.00 0.00 96 1023.1
20211203123648 30 313 0.0 0.0 0.00 0.00 0.00 96 1023.0
20211203122648 30 313 0.0 0.0 0.00 0.00 0.00 96 1023.0
20211203120649 30 313 0.0 0.0 0.00 0.00 0.00 96 1023.0
20211203114648 31 313 0.0 0.0 0.00 0.00 0.00 96 1022.9
20211203112648 31 313 0.0 0.0 0.00 0.00 0.00 96 1023.0